User: anonymous   Login
Location: Unspecified
(0.0000°N, 0.0000°E)
Time: 05:36:22
(UTC+00:00)
Language:

Falconsat - Orbit

View from above orbital plane
View from above orbital plane
View from above satellite
View from above satellite

Ground track
Ground track

The orbit data is extracted from the following two-line orbital elements,

1 26064U 00004D   18112.61024216 -.00000024 +00000-0 +11960-4 0  9995
2 26064 100.1994 174.0315 0037958 170.1045 190.0891 14.36153504955262
Epoch (UTC): 22 April 2018 14:38:44
Eccentricity: 0.0037958
inclination: 100.1994°
perigee height: 744 km
apogee height: 798 km
right ascension of ascending node: 174.0315°
argument of perigee: 170.1045°
revolutions per day: 14.36153504
mean anomaly at epoch: 190.0891°
orbit number at epoch: 95526

The dashed part of the orbit path shows where the satellite is in the earth's shadow,  

DLR